Regional Weather Roundup
Issued by NWS Goodland, KS

Home | Current Version | Previous Version | Graphics & Text | Print | Product List | Glossary On
Versions: 1 2 3 4 5 6 7 8 9 10 11 12 13 14 15 16 17 18 19 20 21 22 23 24 25 26 27 28 29 30 31 32 33 34 35 36 37 38 39 40 41 42 43 44 45 46 47 48 49 50
000
ASUS43 KGLD 310659
RWRGLD

GOODLAND FORECAST AREA HOURLY WEATHER ROUNDUP
NATIONAL WEATHER SERVICE GOODLAND KS
100 AM MDT MON AUG 31 2015

...OFFICIAL OBSERVATIONS...

CITY           SKY/WX    TMP DP  RH WIND       PRES   REMARKS
GOODLAND KS    CLEAR     64  49  57 S14       29.98F
HILL CITY KS   CLEAR     66  61  84 S8        29.97S
IMPERIAL NEB   CLEAR     70  45  40 S16       29.93S
MCCOOK NEB     CLEAR     67  54  63 MISG      29.94S
AKRON CO       PTCLDY    69  47  45 S15G22    29.97S
BURLINGTON CO  CLEAR     65  47  52 S15       30.01S
LIMON CO       CLEAR     58  47  66 SE6       30.04S
$$

...UNOFFICIAL OBSERVATIONS...

CITY           SKY/WX    TMP DP  RH WIND       PRES   REMARKS
COLBY KS       CLEAR     66  54  63 S12       29.99S
GOVE KS          N/A     63  32  31 MISG        N/A
LENORA KS        N/A     64  32  30 MISG        N/A
NORTON KS      CLEAR     61  55  82 SE5       29.95F
SHARON SPRINGS   N/A     65  53  65 S12         N/A
TRENTON NEB      N/A     68  32  26 S12         N/A
KIT CARSON CO    N/A     69  49  49 MISG        N/A
YUMA CO          N/A     69  47  45 S8G17       N/A
$$



USA.gov is the U.S. government's official web portal to all federal, state and local government web resources and services.